Location: Turtle Rock Observatory
(36.6913°N, 81.9708°W)
Time: 17:54:15
(UTC-04:00)

Lacrosse 5 rocket - Visible Passes

Search period start: 26 May 2018 00:00
Search period end: 05 June 2018 00:00
Orbit: 463 x 637 km, 57.0° (Epoch: 19 May)

Date Brightness Start Highest point End Pass type
(mag) Time Alt. Az. Time Alt. Az. Time Alt. Az.
26 May 3.1 21:56:28 10° NNW 21:59:57 23° NE 22:02:25 14° E visible
26 May 2.7 23:35:21 10° NW 23:38:05 32° W 23:38:05 32° W visible
27 May 2.7 21:51:09 10° NNW 21:54:58 30° NE 21:57:27 17° E visible
27 May 3.0 23:30:27 10° WNW 23:33:08 26° W 23:33:08 26° W visible
28 May 2.2 21:45:53 10° NNW 21:49:57 39° NE 21:52:33 18° ESE visible
28 May 3.3 23:25:42 10° WNW 23:28:14 20° WSW 23:28:14 20° WSW visible
29 May 1.8 21:40:39 10° NNW 21:44:54 53° NE 21:47:42 18° ESE visible
29 May 3.6 23:21:14 10° W 23:23:23 15° WSW 23:23:23 15° WSW visible
30 May 1.4 21:35:29 10° NW 21:39:49 74° NE 21:42:55 17° SE visible
30 May 3.9 23:17:41 10° WSW 23:18:20 10° WSW 23:18:36 10° WSW visible
31 May 1.4 21:30:22 10° NW 21:34:42 79° SW 21:38:12 14° SE visible
01 Jun 1.9 21:25:19 10° NW 21:29:33 55° SW 21:33:31 10° SSE visible
02 Jun 2.5 21:20:21 10° NW 21:24:22 38° SW 21:28:09 10° SSE visible
03 Jun 3.1 21:15:29 10° WNW 21:19:09 27° WSW 21:22:38 10° S visible
04 Jun 3.6 21:10:47 10° WNW 21:13:54 20° WSW 21:16:54 10° SSW visible
